Location: Aciu?a
(46.2833°N, 22.4500°E)
Time: 06:07:21
(UTC+00:00)

Lacrosse 4 Rocket - Pass Details

Date: 25 October 2021
Orbit: 537 x 619 km, 68.0° (Epoch: 04 December)

Event Time Altitude Azimuth Distance (km) Brightness Sun altitude
Rises 15:54:15 0° 334° (NNW) 2,807 5.1 -5.5°
Reaches altitude 10° 15:56:35 10° 342° (NNW) 1,919 4.2 -5.9°
Maximum altitude 16:00:39 39° 52° (NE) 909 2.0 -6.6°
Drops below altitude 10° 16:04:46 10° 121° (ESE) 1,951 3.7 -7.3°
Sets 16:07:09 0° 130° (SE) 2,861 4.6 -7.7°
